Theta_e
321 321 322 324 325 325 326 326 327 325 325 323 322 321 320 320 319 315 312 309 302 299
322 321 322 324 326 326 327 326 326 324 324 323 321 320 318 318 314 313 308 304 298 295
324 323 323 324 325 326 326 325 323 322 322 322 318 314 312 309 305 304 300 298 294 292
326 326 325 324 325 326 323 323 321 321 320 317 314 311 311 308 303 302 296 293 293 291
324 324 324 325 325 324 322 323 323 320 317 314 311 309 308 304 302 300 295 292 290 290
316 319 322 324 325 323 322 323 320 316 314 310 308 306 306 304 300 298 296 293 291 289
307 311 315 316 314 313 313 312 312 313 312 309 306 305 304 302 298 296 296 293 290 289
302 307 308 309 308 307 306 307 306 304 303 302 302 302 300 298 296 294 291 290 289 288
299 299 299 299 298 298 298 298 298 297 297 298 300 297 296 295 294 290 289 288 286 286
293 295 294 293 294 293 293 292 292 292 291 291 292 294 294 292 291 289 289 287 286 284
290 289 289 291 291 290 290 290 289 289 289 289 288 293 293 290 287 287 287 286 286 285
289 284 288 287 288 289 288 286 286 285 286 286 286 292 292 289 286 285 285 285 285 285
286 283 287 287 285 284 284 285 284 284 285 285 286 291 291 288 285 285 284 284 284 284
282 285 286 286 283 284 284 283 284 284 284 285 286 287 290 289 285 285 284 283 282 283
Wind_Speed
18 12 12 13 11 11 12 12 13 14 13 14 13 12 11 9 9 8 6 8 6 4
16 17 15 17 12 12 13 11 13 14 15 14 13 13 11 9 10 10 9 9 7 4
17 17 17 13 15 16 13 12 12 13 13 12 11 10 10 6 4 6 5 6 11 7
13 15 14 14 12 13 8 11 13 14 14 14 13 10 10 9 9 11 7 4 8 9
11 11 13 14 16 12 13 13 16 15 14 13 12 12 13 12 11 12 12 12 9 8
10 12 16 17 17 13 13 13 12 12 14 12 12 12 12 12 11 12 12 11 9 10
6 7 7 7 7 7 7 9 10 11 12 13 12 12 11 12 12 11 11 12 13 12
4 4 3 5 5 4 4 5 5 6 5 6 8 9 12 13 12 12 10 8 9 9
1 1 1 1 1 3 3 5 6 7 8 8 7 11 16 14 12 11 12 12 7 9
2 2 3 2 4 3 2 3 3 2 2 5 4 9 13 12 9 11 11 12 11 7
2 2 2 2 2 2 2 0 1 2 3 3 3 8 10 10 5 5 7 9 11 11
3 4 4 3 3 2 2 1 2 2 4 4 2 11 13 12 5 6 7 7 8 10
3 3 3 3 2 1 1 2 2 2 2 2 2 11 14 9 3 5 5 5 6 11
2 2 2 3 2 2 2 3 2 2 2 5 6 6 14 12 5 6 5 5 4 3
Wind_Direction
211 211 215 214 211 210 209 209 204 206 207 209 210 213 212 207 206 190 184 176 175 182
212 214 213 216 210 212 213 213 205 202 207 208 207 203 198 211 208 180 184 179 165 158
211 213 220 218 217 218 215 205 198 200 204 206 206 196 190 190 171 177 172 176 173 172
212 214 213 218 218 217 201 199 200 201 198 198 197 191 198 196 180 183 174 173 188 180
211 206 206 212 218 207 203 196 200 201 197 198 198 187 190 188 189 191 190 180 162 187
219 208 210 213 215 211 205 204 200 192 195 193 194 188 195 195 192 193 185 172 187 175
248 245 238 227 204 195 187 180 187 196 200 196 188 191 193 194 187 190 193 181 175 185
264 277 238 197 185 168 172 190 177 167 181 181 187 192 187 186 196 188 188 181 184 172
263 159 190 84 127 123 170 180 173 190 190 195 205 197 194 185 182 180 173 177 174 151
124 100 51 31 55 47 7 20 330 310 211 225 231 190 190 188 187 179 185 167 150 140
112 117 105 84 82 88 86 225 280 263 246 239 249 205 189 166 161 157 164 154 157 166
163 153 153 163 195 205 203 187 202 183 182 192 220 197 180 165 164 150 154 161 164 165
169 161 178 188 170 139 129 169 156 149 155 164 176 189 180 162 129 156 149 153 153 162
122 178 155 144 135 144 113 117 126 136 151 163 157 184 183 172 154 150 140 137 147 148